N0PSJ Weather Reports


time (UTC)temp
C
wind
direction
speed
KPH
gust
KPH
rain 1hr
cm
rain 24hr
cm
rain mn
cm
humidity
%
barometer
mb
20260508013503 18 22 3.2 8.0 0.00 0.00 0.00 33 1007.8
20260508013003 19 22 4.8 8.0 0.00 0.00 0.00 30 1007.8
20260508012524 19 22 0.0 6.4 0.00 0.00 0.00 30 1007.8
20260508012003 20 22 3.2 12.9 0.00 0.00 0.00 29 1007.9
20260508011502 20 22 4.8 16.1 0.00 0.00 0.00 28 1007.9
20260508011003 20 18 6.4 16.1 0.00 0.00 0.00 28 1008.0
20260508010502 20 328 4.8 8.0 0.00 0.00 0.00 30 1008.1
20260508010024 20 328 4.8 9.7 0.00 0.00 0.00 29 1008.1
20260508005523 20 328 6.4 12.9 0.00 0.00 0.00 29 1008.1
20260508005003 20 328 6.4 12.9 0.00 0.00 0.00 29 1008.0
20260508004503 20 328 4.8 12.9 0.00 0.00 0.00 29 1008.1
20260508004024 20 328 3.2 12.9 0.00 0.00 0.00 28 1008.2
20260508003524 20 328 4.8 12.9 0.00 0.00 0.00 27 1008.1
20260508003004 21 328 1.6 12.9 0.00 0.00 0.00 27 1008.2
20260508002502 21 327 3.2 14.5 0.00 0.00 0.00 27 1008.2
20260508002003 21 327 6.4 14.5 0.00 0.00 0.00 27 1008.2
20260508001524 21 322 3.2 8.0 0.00 0.00 0.00 27 1008.2
20260508001003 21 322 3.2 8.0 0.00 0.00 0.00 26 1008.2
20260508000503 21 322 3.2 14.5 0.00 0.00 0.00 26 1008.2
20260508000002 21 322 3.2 14.5 0.00 0.00 0.00 26 1008.3
20260507235503 21 319 4.8 14.5 0.00 0.00 0.00 25 1008.3
20260507235002 21 319 4.8 16.1 0.00 0.00 0.00 26 1008.3
20260507234503 21 315 4.8 16.1 0.00 0.00 0.00 25 1008.3
20260507234002 22 295 4.8 11.3 0.00 0.00 0.00 26 1008.4
20260507233503 22 220 4.8 8.0 0.00 0.00 0.00 23 1008.4
20260507233002 22 222 3.2 8.0 0.00 0.00 0.00 24 1008.4
20260507232503 22 222 4.8 8.0 0.00 0.00 0.00 23 1008.5
20260507232003 22 224 1.6 3.2 0.00 0.00 0.00 23 1008.6
20260507231503 22 225 0.0 4.8 0.00 0.00 0.00 23 1008.6
20260507231024 22 224 1.6 4.8 0.00 0.00 0.00 22 1008.7
20260507230502 22 224 0.0 6.4 0.00 0.00 0.00 22 1008.7
20260507230003 22 225 0.0 16.1 0.00 0.00 0.00 21 1008.8
20260507225502 22 224 4.8 16.1 0.00 0.00 0.00 23 1008.8
20260507225024 23 227 8.0 16.1 0.00 0.00 0.00 22 1008.8
20260507224523 23 237 6.4 16.1 0.00 0.03 0.00 22 1008.8
20260507224003 23 241 6.4 17.7 0.00 0.03 0.00 22 1008.8
20260507223503 23 256 11.3 17.7 0.00 0.03 0.00 22 1009.0
20260507223024 23 261 9.7 27.4 0.00 0.05 0.00 21 1009.0
20260507222503 23 250 11.3 27.4 0.00 0.05 0.00 22 1009.1
20260507222002 23 256 12.9 27.4 0.00 0.08 0.00 21 1009.1
20260507221503 24 261 17.7 25.7 0.00 0.08 0.00 20 1009.3
20260507221024 24 226 14.5 20.9 0.00 0.10 0.00 22 1009.3
20260507220503 23 224 11.3 20.9 0.00 0.13 0.00 22 1009.4
20260507220002 23 235 14.5 24.1 0.00 0.15 0.00 24 1009.6
20260507215503 23 245 4.8 24.1 0.00 0.18 0.00 21 1009.8
20260507215002 23 221 12.9 24.1 0.00 0.20 0.00 23 1009.9
20260507214503 23 236 14.5 24.1 0.00 0.23 0.00 23 1010.0
20260507214002 23 242 8.0 16.1 0.00 0.23 0.00 22 1010.2
20260507213503 23 247 4.8 16.1 0.00 0.23 0.00 23 1010.3
20260507213003 23 229 6.4 25.7 0.00 0.23 0.00 22 1010.4
20260507212503 23 257 14.5 25.7 0.00 0.23 0.00 23 1010.7
20260507212002 23 253 8.0 19.3 0.00 0.23 0.00 23 1010.7
20260507211503 23 233 8.0 17.7 0.00 0.23 0.00 24 1010.8
20260507211003 23 260 6.4 17.7 0.00 0.25 0.00 21 1011.0
20260507210502 23 248 3.2 19.3 0.00 0.28 0.00 23 1011.2
20260507210003 23 250 4.8 19.3 0.00 0.28 0.00 23 1011.4
20260507205502 23 237 9.7 24.1 0.00 0.28 0.00 24 1011.5
20260507205003 23 263 11.3 24.1 0.00 0.28 0.00 23 1011.6
20260507204503 23 237 4.8 17.7 0.00 0.28 0.00 24 1011.9
20260507204003 23 299 4.8 16.1 0.00 0.28 0.00 23 1012.1
20260507203502 23 211 6.4 19.3 0.00 0.28 0.00 24 1012.2
20260507203003 22 242 0.0 20.9 0.00 0.28 0.00 23 1012.5
20260507202502 22 235 14.5 20.9 0.00 0.28 0.00 24 1012.6
20260507202003 22 305 3.2 17.7 0.00 0.28 0.00 22 1012.8
20260507201502 22 281 3.2 12.9 0.00 0.28 0.00 24 1012.9
20260507201003 22 242 4.8 19.3 0.00 0.28 0.00 24 1013.1
20260507200523 22 304 4.8 19.3 0.00 0.28 0.00 20 1013.2
20260507200003 22 265 8.0 14.5 0.00 0.28 0.00 22 1013.4
20260507195503 22 264 1.6 17.7 0.00 0.28 0.00 21 1013.5
20260507195003 22 264 0.0 17.7 0.00 0.28 0.00 21 1013.7
20260507194503 21 227 6.4 14.5 0.00 0.28 0.00 23 1013.7
20260507194002 21 232 8.0 17.7 0.00 0.28 0.00 22 1013.9
20260507193503 21 241 4.8 17.7 0.00 0.30 0.00 20 1013.9
20260507193003 20 256 6.4 20.9 0.00 0.30 0.00 22 1014.0
20260507192503 20 271 4.8 22.5 0.00 0.30 0.00 20 1014.1
20260507192002 21 249 14.5 22.5 0.00 0.30 0.00 22 1014.2
20260507191503 21 277 11.3 19.3 0.00 0.30 0.00 21 1014.4
20260507191003 21 303 8.0 22.5 0.00 0.33 0.00 22 1014.4
20260507190503 21 242 11.3 22.5 0.00 0.36 0.00 21 1014.5
20260507190003 21 230 6.4 22.5 0.00 0.36 0.00 25 1014.6
20260507185503 20 224 4.8 22.5 0.00 0.38 0.00 26 1014.8
20260507185024 20 246 9.7 20.9 0.00 0.41 0.00 25 1014.8
20260507184503 20 239 6.4 17.7 0.00 0.43 0.00 25 1015.0
20260507184024 19 255 9.7 25.7 0.00 0.46 0.00 26 1015.0
20260507183502 19 227 4.8 25.7 0.00 0.46 0.00 26 1015.1
20260507183003 18 254 14.5 24.1 0.00 0.46 0.00 26 1015.3
20260507182003 18 275 12.9 32.2 0.00 0.48 0.00 28 1015.6
20260507181524 18 249 24.1 37.0 0.00 0.48 0.00 31 1015.6
20260507181002 17 264 20.9 37.0 0.00 0.48 0.00 31 1015.9
20260507180503 17 250 20.9 35.4 0.00 0.51 0.00 32 1015.9
20260507180002 17 263 25.7 40.2 0.00 0.51 0.00 30 1016.0
20260507175503 17 263 20.9 40.2 0.00 0.51 0.00 31 1016.2
20260507175045 17 256 25.7 40.2 0.00 0.51 0.00 32 1016.3
20260507174003 17 271 24.1 40.2 0.00 0.51 0.00 31 1016.7
20260507173502 16 266 27.4 48.3 0.00 0.51 0.00 31 1016.8
20260507173003 16 266 32.2 48.3 0.00 0.51 0.00 30 1016.9
20260507172503 16 253 24.1 43.5 0.00 0.51 0.00 33 1016.8
20260507172002 16 258 29.0 43.5 0.00 0.51 0.00 32 1016.9
20260507171503 16 254 25.7 43.5 0.00 0.53 0.00 35 1017.1
20260507171003 16 248 29.0 45.1 0.00 0.53 0.00 34 1017.2
20260507170503 15 245 30.6 48.3 0.00 0.53 0.00 36 1017.3
20260507170003 15 245 33.8 48.3 0.00 0.56 0.00 35 1017.3
20260507165502 15 247 32.2 45.1 0.00 0.56 0.00 35 1017.4
20260507165003 15 246 29.0 40.2 0.00 0.56 0.00 36 1017.5
20260507164502 15 246 27.4 45.1 0.00 0.56 0.00 36 1017.6
20260507164003 15 255 24.1 45.1 0.00 0.58 0.00 38 1017.7
20260507163524 15 265 24.1 45.1 0.00 0.58 0.00 38 1017.8
20260507163003 14 251 29.0 43.5 0.00 0.61 0.00 36 1017.9
20260507162503 14 258 32.2 43.5 0.00 0.61 0.00 37 1018.0
20260507162003 14 251 29.0 46.7 0.00 0.64 0.00 38 1018.0
20260507161502 13 258 24.1 48.3 0.00 0.66 0.00 38 1018.2
20260507161024 13 256 37.0 48.3 0.00 0.69 0.00 38 1018.1
20260507160524 13 244 27.4 45.1 0.00 0.71 0.00 40 1018.2
20260507160003 13 248 29.0 41.8 0.00 0.74 0.00 39 1018.3
20260507155503 13 262 29.0 45.1 0.00 0.76 0.00 40 1018.3
20260507155003 12 249 29.0 48.3 0.00 0.79 0.00 41 1018.4
20260507154524 12 254 32.2 49.9 0.00 0.79 0.00 41 1018.4
20260507154002 12 259 35.4 49.9 0.00 0.79 0.00 41 1018.4
20260507153503 12 254 29.0 48.3 0.00 0.79 0.00 43 1018.6
20260507153003 11 263 35.4 48.3 0.00 0.79 0.00 42 1018.4
20260507152503 11 254 33.8 46.7 0.00 0.79 0.00 43 1018.5
20260507152003 11 258 24.1 48.3 0.00 0.79 0.00 42 1018.7
20260507151003 11 257 27.4 46.7 0.00 0.79 0.00 43 1018.7
20260507150502 11 256 25.7 54.7 0.00 0.79 0.00 41 1019.0
20260507150003 11 254 32.2 56.3 0.00 0.79 0.00 41 1019.1
20260507145502 10 255 33.8 56.3 0.00 0.79 0.00 40 1019.1
20260507145003 10 263 32.2 43.5 0.00 0.79 0.00 42 1019.1
20260507144502 10 256 25.7 38.6 0.00 0.79 0.00 43 1019.1
20260507144003 10 251 20.9 45.1 0.00 0.79 0.00 46 1019.1
20260507143503 9 247 27.4 45.1 0.00 0.79 0.00 46 1019.2
20260507143002 9 251 25.7 48.3 0.00 0.79 0.00 48 1019.2
20260507142503 8 245 24.1 48.3 0.00 0.79 0.00 50 1019.3
20260507142003 8 247 32.2 41.8 0.00 0.79 0.00 49 1019.1
20260507141503 8 249 24.1 43.5 0.00 0.79 0.00 50 1019.2
20260507141003 8 251 25.7 43.5 0.00 0.79 0.00 51 1019.3
20260507140502 7 257 25.7 41.8 0.00 0.79 0.00 52 1019.3
20260507140003 7 255 25.7 35.4 0.00 0.79 0.00 52 1019.4
20260507135502 7 254 22.5 35.4 0.00 0.79 0.00 53 1019.6
20260507135003 7 258 24.1 35.4 0.00 0.79 0.00 54 1019.7
20260507134502 6 260 20.9 32.2 0.00 0.79 0.00 56 1019.7
20260507134003 6 261 24.1 37.0 0.00 0.79 0.00 56 1019.8
20260507133502 6 261 25.7 37.0 0.00 0.79 0.00 56 1019.8
20260507133002 6 261 17.7 25.7 0.00 0.79 0.00 57 1019.9
20260507132503 6 251 12.9 29.0 0.00 0.79 0.00 58 1019.8
20260507132003 5 259 20.9 29.0 0.00 0.79 0.00 59 1019.7
20260507131502 5 232 14.5 24.1 0.00 0.79 0.00 61 1019.7
20260507131003 5 260 12.9 27.4 0.00 0.79 0.00 61 1019.9
20260507130502 5 260 16.1 27.4 0.00 0.79 0.00 63 1019.7
20260507130003 4 262 16.1 25.7 0.00 0.79 0.00 65 1019.8
20260507125502 4 258 14.5 24.1 0.00 0.79 0.00 65 1019.7
20260507125003 4 261 16.1 30.6 0.00 0.79 0.00 65 1019.7
20260507124502 4 262 20.9 30.6 0.00 0.79 0.00 65 1019.6
20260507124002 3 262 20.9 29.0 0.00 0.79 0.00 66 1019.5
20260507123503 3 259 19.3 29.0 0.00 0.81 0.00 67 1019.6
20260507123002 3 253 19.3 29.0 0.00 0.81 0.00 68 1019.6
20260507122503 3 253 16.1 29.0 0.00 0.81 0.00 68 1019.6
20260507122004 3 250 19.3 29.0 0.00 0.81 0.00 68 1019.6
20260507121503 3 251 16.1 29.0 0.00 0.81 0.00 68 1019.6
20260507121003 3 261 17.7 32.2 0.00 0.81 0.00 68 1019.5
20260507120545 3 260 19.3 32.2 0.00 0.81 0.00 69 1019.5
20260507120002 3 259 16.1 33.8 0.00 0.81 0.00 69 1019.4
20260507115503 3 261 20.9 33.8 0.00 0.84 0.00 70 1019.4
20260507115024 2 261 20.9 30.6 0.00 0.84 0.00 72 1019.4
20260507114503 3 260 16.1 33.8 0.00 0.84 0.00 71 1019.5
20260507114002 3 258 19.3 35.4 0.00 0.84 0.00 71 1019.6
20260507113503 3 260 22.5 35.4 0.00 0.84 0.00 72 1019.4
20260507113003 3 264 20.9 37.0 0.00 0.84 0.00 73 1019.5
20260507112524 3 258 20.9 37.0 0.00 0.84 0.00 75 1019.4
20260507112002 2 260 22.5 32.2 0.00 0.84 0.00 77 1019.4
20260507111503 2 262 14.5 27.4 0.00 0.84 0.00 79 1019.5
20260507111002 2 273 11.3 22.5 0.00 0.84 0.00 81 1019.6
20260507110503 1 281 6.4 12.9 0.00 0.84 0.00 81 1019.7
20260507110002 1 266 4.8 11.3 0.00 0.84 0.00 82 1019.8
20260507105503 1 285 0.0 3.2 0.00 0.84 0.00 82 1019.9
20260507105002 1 285 1.6 4.8 0.00 0.84 0.00 83 1020.0
20260507104503 1 285 0.0 4.8 0.00 0.84 0.00 84 1020.0
20260507104003 1 277 0.0 3.2 0.00 0.84 0.00 85 1020.1
20260507103503 1 271 0.0 3.2 0.00 0.84 0.00 85 1020.3
20260507103023 1 268 0.0 3.2 0.00 0.84 0.00 86 1020.3
20260507102503 1 268 1.6 3.2 0.00 0.84 0.00 86 1020.4
20260507102003 1 269 0.0 3.2 0.00 0.84 0.00 87 1020.4
20260507101503 1 270 0.0 3.2 0.00 0.84 0.00 87 1020.4
20260507101003 1 270 0.0 1.6 0.00 0.84 0.00 87 1020.4
20260507100502 1 269 0.0 1.6 0.00 0.84 0.00 88 1020.5
20260507100003 1 268 0.0 3.2 0.00 0.84 0.00 88 1020.5
20260507095503 0 266 0.0 3.2 0.00 0.84 0.00 89 1020.4
20260507095003 0 263 0.0 4.8 0.00 0.84 0.00 89 1020.4
20260507094503 0 263 0.0 6.4 0.00 0.84 0.00 89 1020.5
20260507094003 0 261 3.2 6.4 0.00 0.84 0.00 90 1020.6
20260507093502 0 265 3.2 6.4 0.00 0.84 0.00 90 1020.6
20260507093003 0 286 1.6 3.2 0.00 0.84 0.00 89 1020.7
20260507092503 0 287 0.0 3.2 0.00 0.84 0.00 90 1020.8
20260507092002 0 287 0.0 3.2 0.00 0.84 0.00 90 1020.7
20260507091503 0 284 0.0 3.2 0.00 0.84 0.00 90 1020.7
20260507091002 0 269 0.0 3.2 0.00 0.84 0.00 90 1020.8
20260507090503 0 254 1.6 3.2 0.00 0.84 0.00 90 1020.9
20260507090002 0 243 1.6 3.2 0.00 0.84 0.00 90 1021.0
20260507085503 0 236 0.0 0.0 0.00 0.84 0.00 89 1021.0
20260507085045 0 236 0.0 0.0 0.00 0.84 0.00 89 1021.0
20260507084502 0 236 0.0 0.0 0.00 0.84 0.00 89 1021.1
20260507084003 0 236 0.0 0.0 0.00 0.84 0.00 89 1021.0
20260507083523 0 236 0.0 0.0 0.00 0.84 0.00 89 1020.9
20260507083004 0 236 0.0 0.0 0.00 0.84 0.00 89 1020.9
20260507082502 0 236 0.0 0.0 0.00 0.84 0.00 89 1020.9
20260507082003 0 236 0.0 0.0 0.00 0.84 0.00 89 1020.8
20260507081502 0 236 0.0 0.0 0.00 0.84 0.00 89 1020.7
20260507081003 0 236 0.0 0.0 0.00 0.84 0.00 89 1020.8
20260507080502 0 236 0.0 0.0 0.00 0.84 0.00 89 1021.1
20260507080003 0 236 0.0 0.0 0.00 0.84 0.00 89 1021.1
20260507075503 0 236 0.0 0.0 0.00 0.84 0.00 89 1021.2
20260507075003 0 236 0.0 0.0 0.00 0.84 0.00 89 1021.2
20260507074523 0 236 0.0 0.0 0.00 0.84 0.00 89 1021.1
20260507074003 0 236 0.0 0.0 0.00 0.84 0.00 89 1021.2
20260507073502 0 236 0.0 0.0 0.00 0.84 0.00 88 1021.3
20260507073003 0 236 0.0 0.0 0.00 0.84 0.00 88 1021.3
20260507072502 0 236 0.0 0.0 0.00 0.84 0.00 88 1021.2
20260507072024 0 236 0.0 0.0 0.00 0.84 0.00 88 1021.2
20260507071524 0 236 0.0 0.0 0.00 0.84 0.00 88 1021.2
20260507071003 0 236 0.0 0.0 0.00 0.84 0.00 87 1021.2
20260507070503 0 236 0.0 0.0 0.00 0.86 0.00 87 1021.1
20260507070004 0 236 0.0 0.0 0.00 0.86 0.00 86 1021.2
20260507065503 0 236 0.0 0.0 0.00 0.86 0.00 86 1021.1
20260507065003 0 236 0.0 0.0 0.00 0.86 0.00 86 1021.2
20260507064502 0 236 0.0 0.0 0.00 0.86 0.00 86 1021.3
20260507064024 0 236 0.0 0.0 0.00 0.89 0.00 86 1021.1
20260507063503 0 236 0.0 0.0 0.00 0.89 0.00 86 1021.1
20260507063002 0 236 0.0 0.0 0.00 0.91 0.00 86 1021.1
20260507062503 0 236 0.0 0.0 0.00 0.91 0.00 86 1021.2
20260507062003 0 236 0.0 0.0 0.00 0.94 0.00 86 1021.1
20260507061503 1 236 0.0 0.0 0.00 0.94 0.00 86 1021.0
20260507061002 1 236 0.0 0.0 0.00 0.97 0.00 85 1021.1
20260507060503 1 236 0.0 0.0 0.00 0.97 0.00 85 1021.1
20260507060024 1 236 0.0 0.0 0.00 0.99 0.00 85 1021.0
20260507055503 1 236 0.0 0.0 0.00 0.99 0.99 85 1021.0
20260507055002 1 236 0.0 0.0 0.00 0.99 0.99 84 1021.0
20260507054503 1 236 0.0 0.0 0.00 0.99 0.99 84 1020.9
20260507054002 1 236 0.0 0.0 0.00 0.99 0.99 84 1020.9
20260507053503 1 236 0.0 0.0 0.00 0.99 0.99 84 1020.9
20260507053003 1 236 0.0 0.0 0.00 0.99 0.99 84 1020.9
20260507052524 1 236 0.0 0.0 0.00 1.02 0.99 84 1021.0
20260507052024 1 236 0.0 0.0 0.00 1.02 0.99 83 1021.0
20260507051524 1 236 0.0 0.0 0.00 1.02 0.99 83 1021.2
20260507051003 1 236 0.0 0.0 0.00 1.02 0.99 83 1021.1
20260507050503 1 236 0.0 0.0 0.00 1.02 0.99 83 1021.1
20260507050002 1 236 0.0 0.0 0.00 1.02 0.99 83 1021.1
20260507045524 1 236 0.0 0.0 0.00 1.02 0.99 83 1021.1
20260507045003 1 236 0.0 0.0 0.00 1.02 0.99 82 1021.1
20260507044503 2 236 0.0 0.0 0.00 1.02 0.99 82 1021.1
20260507044003 2 236 0.0 0.0 0.00 1.02 0.99 82 1021.1
20260507043503 2 236 0.0 0.0 0.00 1.02 0.99 81 1021.0
20260507043003 2 236 0.0 0.0 0.00 1.02 0.99 81 1021.0
20260507042503 2 236 0.0 0.0 0.00 1.02 0.99 81 1021.1
20260507042002 2 236 0.0 0.0 0.00 1.02 0.99 81 1021.1
20260507041503 2 236 0.0 0.0 0.00 1.02 0.99 80 1021.1
20260507041003 2 236 0.0 0.0 0.00 1.02 0.99 80 1020.9
20260507040502 2 236 0.0 0.0 0.00 1.02 0.99 80 1020.9
20260507040003 2 236 0.0 0.0 0.00 1.02 0.99 80 1020.8
20260507035502 2 236 0.0 0.0 0.00 1.02 0.99 80 1020.9
20260507035003 2 236 0.0 0.0 0.00 1.02 0.99 80 1020.9
20260507034523 2 236 0.0 0.0 0.00 1.02 0.99 80 1020.8
20260507034003 3 236 0.0 0.0 0.00 1.02 0.99 80 1021.0
20260507033502 3 236 0.0 0.0 0.00 1.02 0.99 79 1021.0
20260507033003 3 236 0.0 0.0 0.00 1.02 0.99 79 1020.9
20260507032502 3 236 0.0 0.0 0.00 1.02 0.99 80 1020.9
20260507032003 3 236 0.0 0.0 0.00 1.02 0.99 79 1020.9
20260507031502 3 236 0.0 0.0 0.00 1.02 0.99 79 1020.9
20260507031003 3 236 0.0 1.6 0.00 1.02 0.99 79 1020.9
20260507030503 3 236 0.0 3.2 0.00 1.02 0.99 78 1020.9
20260507030002 3 235 1.6 3.2 0.00 1.02 0.99 77 1020.8
20260507025503 3 236 0.0 3.2 0.00 1.02 0.99 77 1020.8
20260507025002 3 235 1.6 3.2 0.00 1.02 0.99 76 1020.8
20260507024503 3 235 1.6 3.2 0.00 1.02 0.99 76 1020.7
20260507024002 4 235 1.6 3.2 0.00 1.02 0.99 76 1020.7
20260507023503 4 235 1.6 3.2 0.00 1.02 0.99 76 1020.6
20260507023003 4 235 1.6 3.2 0.00 1.02 0.99 76 1020.6
20260507022545 4 236 0.0 0.0 0.00 1.02 0.99 76 1020.6
20260507022002 5 236 0.0 0.0 0.00 1.02 0.99 76 1020.6
20260507021503 5 236 0.0 0.0 0.00 1.02 0.99 76 1020.6
20260507021002 5 236 0.0 0.0 0.00 1.02 0.99 75 1020.6
20260507020524 5 236 0.0 0.0 0.00 1.02 0.99 75 1020.5
20260507020024 5 236 0.0 0.0 0.00 1.02 0.99 74 1020.5
20260507015503 5 236 0.0 0.0 0.00 1.02 0.99 74 1020.5
20260507015003 5 236 0.0 0.0 0.00 1.02 0.99 74 1020.6
20260507014502 5 236 0.0 0.0 0.00 1.02 0.99 73 1020.6
20260507014003 5 236 0.0 3.2 0.00 1.02 0.99 73 1020.6